KI5NYZ Weather Reports


time (UTC)temp
C
wind
direction
speed
KPH
gust
KPH
rain 1hr
cm
rain 24hr
cm
rain mn
cm
humidity
%
barometer
mb
20260507140522 11 113 6.4 9.7 0.00 0.94 0.00 62 1021.0
20260507135518 11 107 4.8 9.7 0.00 0.94 0.00 61 1020.9
20260507134519 10 112 6.4 9.7 0.00 0.94 0.00 62 1020.8
20260507133559 10 102 4.8 8.0 0.00 0.94 0.00 61 1020.7
20260507132519 10 98 4.8 8.0 0.00 0.94 0.00 59 1020.7
20260507131519 10 94 4.8 8.0 0.00 0.94 0.00 59 1020.5
20260507130520 9 83 3.2 4.8 0.00 0.94 0.00 59 1020.5
20260507125519 9 86 3.2 6.4 0.00 0.94 0.00 60 1020.4
20260507124600 8 75 1.6 3.2 0.00 0.94 0.00 61 1020.4
20260507123521 8 68 1.6 3.2 0.00 0.94 0.00 62 1020.3
20260507122520 8 62 1.6 4.8 0.00 0.94 0.00 63 1020.0
20260507121520 8 70 3.2 4.8 0.00 0.94 0.00 64 1019.9
20260507120520 8 85 3.2 6.4 0.00 0.94 0.00 63 1019.9
20260507115521 8 96 3.2 8.0 0.00 0.94 0.00 63 1019.9
20260507114541 9 95 4.8 11.3 0.00 0.94 0.00 61 1019.9
20260507113522 9 95 6.4 12.9 0.00 0.94 0.00 60 1019.9
20260507112524 10 92 4.8 9.7 0.00 0.94 0.00 60 1019.9
20260507111521 10 89 6.4 9.7 0.00 0.94 0.00 59 1019.9
20260507110521 10 92 6.4 11.3 0.00 0.94 0.00 59 1020.0
20260507105522 10 85 8.0 12.9 0.00 0.94 0.00 58 1019.9
20260507104519 10 81 4.8 8.0 0.00 0.94 0.00 59 1019.9
20260507103519 10 75 6.4 9.7 0.00 0.94 0.00 59 1019.9
20260507102520 10 76 4.8 9.7 0.00 0.94 0.00 60 1020.0
20260507101518 10 77 6.4 11.3 0.00 0.94 0.00 61 1019.9
20260507100519 10 75 6.4 12.9 0.00 0.94 0.00 62 1019.9
20260507095519 9 62 4.8 9.7 0.00 0.94 0.00 67 1019.9
20260507094521 9 59 3.2 4.8 0.00 0.94 0.00 69 1019.8
20260507093520 10 63 3.2 6.4 0.00 0.94 0.00 69 1019.8
20260507092519 10 63 1.6 4.8 0.00 0.94 0.00 69 1019.7
20260507091520 10 71 1.6 4.8 0.00 0.94 0.00 68 1019.6
20260507090521 10 75 4.8 6.4 0.00 0.94 0.00 67 1019.6
20260507085520 10 76 4.8 8.0 0.00 0.94 0.00 67 1019.6
20260507084520 10 72 3.2 6.4 0.00 0.94 0.00 67 1019.6
20260507083520 10 76 3.2 6.4 0.00 0.94 0.00 67 1019.4
20260507082520 11 72 3.2 6.4 0.00 0.94 0.00 66 1019.3
20260507081540 11 75 3.2 8.0 0.00 0.94 0.00 64 1019.2
20260507080522 11 75 3.2 6.4 0.00 0.94 0.00 64 1019.2
20260507075541 11 68 4.8 8.0 0.00 0.94 0.00 63 1019.3
20260507074521 11 66 4.8 9.7 0.00 0.94 0.00 62 1019.2
20260507073542 11 65 6.4 9.7 0.00 0.94 0.00 62 1019.2
20260507072523 12 72 4.8 6.4 0.00 0.94 0.00 62 1018.9
20260507071521 12 89 3.2 6.4 0.00 0.94 0.00 61 1018.7
20260507070519 12 68 3.2 6.4 0.00 0.94 0.00 60 1018.9
20260507065521 12 79 3.2 6.4 0.00 0.94 0.00 59 1018.8
20260507064519 12 84 6.4 11.3 0.00 0.94 0.00 58 1018.6
20260507063522 13 82 4.8 8.0 0.00 0.94 0.00 57 1018.7
20260507062521 13 71 4.8 9.7 0.00 0.94 0.00 56 1018.8
20260507061520 12 65 4.8 8.0 0.00 0.94 0.00 57 1018.6
20260507060521 12 49 4.8 8.0 0.00 0.94 0.00 59 1018.2
20260507055520 13 100 1.6 4.8 0.00 0.94 0.00 58 1017.6
20260507054520 13 105 1.6 4.8 0.00 0.94 0.00 57 1017.3
20260507053520 13 115 3.2 4.8 0.00 0.94 0.00 56 1017.1
20260507052521 14 122 3.2 6.4 0.00 0.94 0.00 54 1017.0
20260507051530 15 127 4.8 8.0 0.05 0.94 0.00 53 1016.7
20260507050543 15 124 4.8 6.4 0.05 0.94 0.00 52 1016.6
20260507045523 15 128 3.2 8.0 0.08 0.94 0.94 51 1016.4
20260507044521 15 165 1.6 8.0 0.18 0.94 0.94 50 1016.1
20260507043521 16 120 4.8 8.0 0.23 0.94 0.94 49 1016.2
20260507042521 16 117 6.4 11.3 0.30 0.94 0.94 48 1015.9
20260507041521 16 119 4.8 9.7 0.43 0.91 0.91 47 1015.9
20260507040521 16 117 6.4 9.7 0.53 0.91 0.91 46 1015.6
20260507035538 17 89 8.0 12.9 0.64 0.89 0.89 45 1015.4
20260507034519 17 61 6.4 12.9 0.61 0.79 0.79 44 1015.2
20260507033540 17 57 8.0 14.5 0.56 0.71 0.71 44 1014.9
20260507032519 17 148 11.3 17.7 0.46 0.64 0.64 43 1014.7
20260507031522 18 144 11.3 14.5 0.33 0.48 0.48 42 1014.8
20260507030520 18 116 9.7 16.1 0.23 0.38 0.38 41 1014.6
20260507025519 18 118 8.0 19.3 0.10 0.25 0.25 41 1014.5
20260507024520 18 119 4.8 11.3 0.00 0.15 0.15 41 1014.3
20260507023519 18 121 4.8 8.0 0.00 0.15 0.15 41 1014.0
20260507022540 18 120 3.2 6.4 0.00 0.15 0.15 41 1013.8
20260507021523 19 191 0.0 3.2 0.00 0.15 0.15 40 1013.6
20260507020600 20 180 0.0 3.2 0.00 0.15 0.15 39 1013.4
20260507015522 20 185 0.0 6.4 0.00 0.15 0.15 39 1013.3
20260507014520 20 178 0.0 4.8 0.00 0.15 0.15 38 1013.2
20260507013520 21 154 0.0 6.4 0.00 0.15 0.15 36 1013.1
20260507012522 22 158 1.6 6.4 0.00 0.15 0.15 34 1012.9
20260507011522 22 178 4.8 11.3 0.00 0.15 0.15 33 1012.8
20260507010521 23 176 4.8 12.9 0.00 0.15 0.15 32 1012.7
20260507005521 23 154 1.6 9.7 0.00 0.15 0.15 31 1012.6
20260507004521 23 153 3.2 9.7 0.00 0.15 0.15 30 1012.5
20260507003522 23 105 1.6 6.4 0.00 0.15 0.15 30 1012.5
20260507002523 24 163 3.2 9.7 0.00 0.15 0.15 29 1012.4
20260507001539 24 168 3.2 12.9 0.00 0.15 0.15 29 1012.4
20260507000521 24 160 3.2 11.3 0.00 0.15 0.15 29 1012.3
20260506235520 25 137 1.6 8.0 0.00 0.15 0.15 28 1012.3
20260506234519 24 179 3.2 11.3 0.00 0.15 0.15 28 1012.4
20260506233540 24 107 3.2 8.0 0.00 0.15 0.15 27 1012.4
20260506232520 24 158 1.6 8.0 0.00 0.18 0.15 28 1012.3
20260506231519 24 184 6.4 14.5 0.00 0.18 0.15 27 1012.3
20260506230521 25 97 3.2 6.4 0.00 0.20 0.15 28 1012.2
20260506225520 25 143 0.0 4.8 0.00 0.33 0.15 27 1012.2
20260506224523 24 100 3.2 6.4 0.00 0.36 0.15 28 1012.3
20260506223520 23 99 3.2 8.0 0.00 0.38 0.15 28 1012.4
20260506222521 23 22 3.2 17.7 0.00 0.38 0.15 29 1012.5
20260506221523 23 326 4.8 12.9 0.00 0.41 0.15 29 1012.6
20260506220522 23 103 3.2 6.4 0.00 0.41 0.15 29 1012.7
20260506215521 23 159 4.8 17.7 0.00 0.41 0.15 29 1012.8
20260506214602 23 173 1.6 8.0 0.00 0.41 0.15 29 1012.9
20260506213522 23 116 3.2 8.0 0.00 0.41 0.15 30 1013.0
20260506212546 22 50 4.8 16.1 0.00 0.41 0.15 31 1013.2
20260506211519 22 122 3.2 11.3 0.00 0.41 0.15 31 1013.4
20260506210518 23 122 3.2 11.3 0.00 0.41 0.15 30 1013.5
20260506205520 22 96 1.6 8.0 0.00 0.41 0.15 32 1013.7
20260506204519 22 108 3.2 12.9 0.00 0.41 0.15 31 1013.8
20260506203521 22 100 3.2 11.3 0.00 0.41 0.15 33 1013.9
20260506202519 21 114 3.2 14.5 0.00 0.41 0.15 34 1013.9
20260506201523 21 74 4.8 16.1 0.00 0.41 0.15 36 1014.1
20260506200523 21 106 1.6 8.0 0.00 0.41 0.15 36 1014.2
20260506195541 21 93 3.2 11.3 0.00 0.41 0.15 37 1014.2
20260506194542 20 157 3.2 12.9 0.00 0.41 0.15 38 1014.4
20260506193542 20 184 3.2 11.3 0.00 0.41 0.15 39 1014.5
20260506192521 19 118 3.2 12.9 0.00 0.41 0.15 40 1014.6
20260506191520 19 77 4.8 11.3 0.00 0.41 0.15 41 1014.6
20260506190520 18 79 3.2 6.4 0.00 0.41 0.15 42 1014.7
20260506185524 18 32 8.0 14.5 0.00 0.41 0.15 45 1014.7
20260506184521 17 104 1.6 6.4 0.00 0.41 0.15 45 1014.8
20260506183521 17 97 4.8 11.3 0.00 0.41 0.15 46 1014.8
20260506182521 16 100 3.2 9.7 0.00 0.41 0.15 47 1014.9
20260506181541 16 92 3.2 11.3 0.00 0.41 0.15 48 1015.2
20260506180521 16 106 3.2 8.0 0.00 0.41 0.15 50 1015.2
20260506175538 15 82 3.2 9.7 0.00 0.41 0.15 52 1015.4
20260506174519 15 116 3.2 11.3 0.00 0.41 0.15 53 1015.6
20260506173540 15 106 6.4 11.3 0.00 0.41 0.15 54 1015.8
20260506172519 14 97 4.8 12.9 0.00 0.41 0.15 55 1015.8
20260506171519 13 71 4.8 8.0 0.00 0.41 0.15 57 1015.8
20260506170520 13 104 3.2 11.3 0.03 0.41 0.15 56 1015.8
20260506165520 13 98 4.8 12.9 0.03 0.41 0.15 58 1015.8
20260506164522 13 99 6.4 14.5 0.03 0.41 0.15 59 1015.8
20260506163520 12 114 4.8 9.7 0.08 0.41 0.15 60 1015.7
20260506162520 12 109 4.8 12.9 0.10 0.41 0.15 62 1015.7
20260506161540 12 106 6.4 17.7 0.13 0.41 0.15 63 1015.7
20260506160601 12 93 6.4 14.5 0.10 0.38 0.15 63 1015.7
20260506155520 11 93 6.4 12.9 0.10 0.38 0.13 64 1015.6
20260506154521 11 108 8.0 12.9 0.10 0.38 0.13 65 1015.7
20260506153521 11 100 6.4 12.9 0.05 0.33 0.08 67 1015.7
20260506152521 11 97 6.4 11.3 0.03 0.28 0.05 65 1015.6
20260506151526 11 91 6.4 12.9 0.00 0.28 0.03 66 1015.5
20260506150522 10 88 6.4 11.3 0.03 0.28 0.03 68 1015.5
20260506145521 10 86 6.4 9.7 0.03 0.28 0.03 68 1015.6
20260506144523 10 83 6.4 9.7 0.00 0.28 0.03 69 1015.6
20260506143559 10 87 8.0 12.9 0.00 0.28 0.03 70 1015.5
20260506142519 9 82 6.4 11.3 0.00 0.28 0.03 71 1015.4
20260506141519 9 70 6.4 11.3 0.00 0.28 0.03 72 1015.4